,,,PA_Meas_PMT16A,,PR_Meas_QMR101_102,,RH_Meas_QMH101,,SR_Meas_QMS101,,TA_Meas_QMH101,,GenWind,,GenWind,
date,time,status,PA,status,PR,status,RH,status,SR,status,TA,status,DirAvg,status,SpdAvg,
2011-08-25, 00:00:04,VALID,999.648,VALID,0,VALID,51.7441,VALID,0,VALID,27.7624,VALID,177,VALID,4.16016,
2011-08-25, 00:01:04,VALID,999.653,VALID,0,VALID,51.828,VALID,0,VALID,27.7017,VALID,177,VALID,4.28789,
2011-08-25, 00:02:04,VALID,999.543,VALID,0,VALID,51.889,VALID,0,VALID,27.7819,VALID,167,VALID,6.65625,
2011-08-25, 00:03:04,VALID,999.552,VALID,0,VALID,52.1637,VALID,0,VALID,27.7603,VALID,172,VALID,5.34141,
2011-08-25, 00:04:04,VALID,999.564,VALID,0,VALID,52.3239,VALID,0,VALID,27.7038,VALID,170,VALID,4.54609,
2011-08-25, 00:05:04,VALID,999.576,VALID,0,VALID,52.5986,VALID,0,VALID,27.6431,VALID,175,VALID,5.0082,
2011-08-25, 00:06:04,VALID,999.48,VALID,0,VALID,52.9114,VALID,0,VALID,27.6235,VALID,177,VALID,5.26523,
2011-08-25, 00:07:04,VALID,999.513,VALID,0,VALID,52.8351,VALID,0,VALID,27.6647,VALID,170,VALID,4.15,
2011-08-25, 00:08:04,VALID,999.519,VALID,0,VALID,53.2853,VALID,0,VALID,27.6235,VALID,162,VALID,3.7918,
2011-08-25, 00:09:04,VALID,999.483,VALID,0,VALID,53.2395,VALID,0,VALID,27.5845,VALID,162,VALID,3.85977,
2011-08-25, 00:10:04,VALID,999.461,VALID,0,VALID,53.4836,VALID,0,VALID,27.6061,VALID,174,VALID,3.49844,
2011-08-25, 00:11:04,VALID,999.488,VALID,0,VALID,53.5599,VALID,0,VALID,27.5649,VALID,159,VALID,3.89023,
2011-08-25, 00:12:04,VALID,999.5,VALID,0,VALID,53.6591,VALID,0,VALID,27.5845,VALID,172,VALID,3.90234,
2011-08-25, 00:13:04,VALID,999.474,VALID,0,VALID,53.7736,VALID,0,VALID,27.567,VALID,179,VALID,3.36562,
2011-08-25, 00:14:04,VALID,999.492,VALID,0,VALID,53.9185,VALID,0,VALID,27.5454,VALID,173,VALID,3.56289,
2011-08-25, 00:15:04,VALID,999.498,VALID,0,VALID,54.1016,VALID,0,VALID,27.5454,VALID,184,VALID,3.9707,
2011-08-25, 00:16:04,VALID,999.482,VALID,0,VALID,54.0025,VALID,0,VALID,27.5475,VALID,181,VALID,3.43906,
2011-08-25, 00:17:04,VALID,999.486,VALID,0,VALID,53.8575,VALID,0,VALID,27.5865,VALID,199,VALID,3.81289,
2011-08-25, 00:18:04,VALID,999.447,VALID,0,VALID,53.8041,VALID,0,VALID,27.6235,VALID,191,VALID,3.71484,
2011-08-25, 00:19:04,VALID,999.455,VALID,0,VALID,53.9262,VALID,0,VALID,27.6235,VALID,173,VALID,4.49766,
2011-08-25, 00:20:04,VALID,999.414,VALID,0,VALID,54.0025,VALID,0,VALID,27.6235,VALID,183,VALID,4.69766,
2011-08-25, 00:21:04,VALID,999.366,VALID,0,VALID,54.1093,VALID,0,VALID,27.6647,VALID,162,VALID,6.85586,
2011-08-25, 00:22:04,VALID,999.353,VALID,0,VALID,54.0711,VALID,0,VALID,27.6431,VALID,171,VALID,4.75469,
2011-08-25, 00:23:04,VALID,999.471,VALID,0,VALID,54.2237,VALID,0,VALID,27.6842,VALID,181,VALID,3.67695,
2011-08-25, 00:24:04,VALID,999.368,VALID,0,VALID,54.6204,VALID,0,VALID,27.5845,VALID,174,VALID,4.93203,
2011-08-25, 00:25:04,VALID,999.38,VALID,0,VALID,54.8799,VALID,0,VALID,27.6452,VALID,177,VALID,5.77305,
2011-08-25, 00:26:04,VALID,999.39,VALID,0,VALID,55.0019,VALID,0,VALID,27.6452,VALID,174,VALID,5.62773,
2011-08-25, 00:27:04,VALID,999.318,VALID,0,VALID,55.3605,VALID,0,VALID,27.5865,VALID,189,VALID,6.16875,
2011-08-25, 00:28:04,VALID,999.333,VALID,0,VALID,55.3682,VALID,0,VALID,27.6452,VALID,200,VALID,5.59453,
2011-08-25, 00:29:04,VALID,999.306,VALID,0,VALID,55.4063,VALID,0,VALID,27.6647,VALID,166,VALID,6.52461,
2011-08-25, 00:30:04,VALID,999.295,VALID,0,VALID,55.6276,VALID,0,VALID,27.6256,VALID,179,VALID,5.73242,
2011-08-25, 00:31:04,VALID,999.309,VALID,0,VALID,55.8412,VALID,0,VALID,27.5865,VALID,183,VALID,4.42656,
2011-08-25, 00:32:04,VALID,999.292,VALID,0,VALID,56.1235,VALID,0,VALID,27.5475,VALID,192,VALID,4.03438,
2011-08-25, 00:33:04,VALID,999.253,VALID,0,VALID,56.4973,VALID,0,VALID,27.5063,VALID,183,VALID,6.78359,
2011-08-25, 00:34:04,VALID,999.204,VALID,0,VALID,56.421,VALID,0,VALID,27.5279,VALID,175,VALID,7.16094,
2011-08-25, 00:35:04,VALID,999.211,VALID,0,VALID,56.8407,VALID,0,VALID,27.5084,VALID,163,VALID,7.07148,
2011-08-25, 00:36:04,VALID,999.146,VALID,0,VALID,57.0009,VALID,0,VALID,27.4498,VALID,189,VALID,6.23281,
2011-08-25, 00:37:04,VALID,999.105,VALID,0,VALID,57.0009,VALID,0,VALID,27.4303,VALID,175,VALID,6.64102,
2011-08-25, 00:38:04,VALID,999.105,VALID,0,VALID,57.2221,VALID,0,VALID,27.4303,VALID,191,VALID,4.72539,
2011-08-25, 00:39:04,VALID,999.166,VALID,0,VALID,57.3824,VALID,0,VALID,27.4107,VALID,187,VALID,4.64219,
2011-08-25, 00:40:04,VALID,999.103,VALID,0,VALID,57.39,VALID,0,VALID,27.4107,VALID,184,VALID,4.01133,
2011-08-25, 00:41:04,VALID,999.075,VALID,0,VALID,57.4816,VALID,0,VALID,27.4303,VALID,186,VALID,5.73398,
2011-08-25, 00:42:04,VALID,999.088,VALID,0,VALID,57.5731,VALID,0,VALID,27.3912,VALID,185,VALID,6.13008,
2011-08-25, 00:43:04,VALID,999.069,VALID,0,VALID,57.8859,VALID,0,VALID,27.3521,VALID,172,VALID,5.93906,
2011-08-25, 00:44:04,VALID,998.986,VALID,0,VALID,57.7486,VALID,0,VALID,27.3305,VALID,176,VALID,5.68164,
2011-08-25, 00:45:04,VALID,999.008,VALID,0,VALID,57.8783,VALID,0,VALID,27.3521,VALID,175,VALID,5.7793,
2011-08-25, 00:46:04,VALID,998.98,VALID,0,VALID,57.9393,VALID,0,VALID,27.3521,VALID,180,VALID,7.04766,
2011-08-25, 00:47:04,VALID,998.993,VALID,0,VALID,57.9241,VALID,0,VALID,27.3326,VALID,179,VALID,6.43594,
2011-08-25, 00:48:04,VALID,998.99,VALID,0,VALID,58.0004,VALID,0,VALID,27.3326,VALID,173,VALID,4.84062,
2011-08-25, 00:49:04,VALID,998.983,VALID,0,VALID,58.2064,VALID,0,VALID,27.3131,VALID,164,VALID,3.45195,
2011-08-25, 00:50:04,VALID,998.969,VALID,0,VALID,58.5192,VALID,0,VALID,27.1959,VALID,170,VALID,4.57109,
2011-08-25, 00:51:04,VALID,998.918,VALID,0,VALID,58.7481,VALID,0,VALID,27.1763,VALID,178,VALID,3.6,
2011-08-25, 00:52:04,VALID,998.923,VALID,0,VALID,58.8244,VALID,0,VALID,27.1352,VALID,174,VALID,4.43125,
2011-08-25, 00:53:04,VALID,998.913,VALID,0,VALID,59.0761,VALID,0,VALID,27.0982,VALID,183,VALID,3.23828,
2011-08-25, 00:54:04,VALID,998.882,VALID,0,VALID,58.6489,VALID,0,VALID,27.0766,VALID,187,VALID,4.48438,
2011-08-25, 00:55:04,VALID,998.92,VALID,0,VALID,58.7328,VALID,0,VALID,27.1373,VALID,181,VALID,4.77031,
2011-08-25, 00:56:04,VALID,998.933,VALID,0,VALID,59.0227,VALID,0,VALID,27.0766,VALID,185,VALID,4.02539,
2011-08-25, 00:57:04,VALID,998.828,VALID,0,VALID,58.832,VALID,0,VALID,27.0787,VALID,178,VALID,4.09297,
2011-08-25, 00:58:04,VALID,998.81,VALID,0,VALID,58.5879,VALID,0,VALID,27.1177,VALID,164,VALID,5.37383,
2011-08-25, 00:59:04,VALID,998.867,VALID,0,VALID,58.7099,VALID,0,VALID,27.0766,VALID,163,VALID,4.41016,
2011-08-25, 01:00:04,VALID,998.782,VALID,0,VALID,58.9159,VALID,0,VALID,27.0571,VALID,166,VALID,3.56172,
2011-08-25, 01:01:04,VALID,998.801,VALID,0,VALID,58.9083,VALID,0,VALID,27.0787,VALID,180,VALID,3.07109,
2011-08-25, 01:02:04,VALID,998.775,VALID,0,VALID,58.6718,VALID,0,VALID,27.0766,VALID,178,VALID,4.30937,
2011-08-25, 01:03:04,VALID,998.721,VALID,0,VALID,58.4124,VALID,0,VALID,27.1568,VALID,183,VALID,5.36992,
2011-08-25, 01:04:04,VALID,998.764,VALID,0,VALID,58.2827,VALID,0,VALID,27.1938,VALID,187,VALID,5.37187,
2011-08-25, 01:05:04,VALID,998.78,VALID,0,VALID,58.1453,VALID,0,VALID,27.2329,VALID,195,VALID,5.81133,
2011-08-25, 01:06:04,VALID,998.666,VALID,0,VALID,58.1911,VALID,0,VALID,27.2154,VALID,170,VALID,4.74687,
2011-08-25, 01:07:04,VALID,998.703,VALID,0,VALID,58.1987,VALID,0,VALID,27.1959,VALID,195,VALID,4.25039,
2011-08-25, 01:08:04,VALID,998.775,VALID,0,VALID,58.3361,VALID,0,VALID,27.2154,VALID,181,VALID,3.79219,
2011-08-25, 01:09:04,VALID,998.759,VALID,0,VALID,58.153,VALID,0,VALID,27.1938,VALID,181,VALID,5.35195,
2011-08-25, 01:10:04,VALID,998.767,VALID,0,VALID,58.1377,VALID,0,VALID,27.1743,VALID,173,VALID,5.9832,
2011-08-25, 01:11:04,VALID,998.799,VALID,0,VALID,57.9088,VALID,0,VALID,27.2154,VALID,180,VALID,4.58789,
2011-08-25, 01:12:04,VALID,998.734,VALID,0,VALID,57.7486,VALID,0,VALID,27.1938,VALID,171,VALID,6.13555,
2011-08-25, 01:13:04,VALID,998.713,VALID,0,VALID,57.4358,VALID,0,VALID,27.274,VALID,193,VALID,5.72695,
2011-08-25, 01:14:04,VALID,998.71,VALID,0,VALID,57.4282,VALID,0,VALID,27.2915,VALID,180,VALID,4.03086,
2011-08-25, 01:15:04,VALID,998.698,VALID,0,VALID,57.3137,VALID,0,VALID,27.3131,VALID,170,VALID,5.05117,
2011-08-25, 01:16:04,VALID,998.718,VALID,0,VALID,57.0467,VALID,0,VALID,27.3326,VALID,181,VALID,5.0375,
2011-08-25, 01:17:04,VALID,998.725,VALID,0,VALID,57.1459,VALID,0,VALID,27.3326,VALID,163,VALID,4.92617,
2011-08-25, 01:18:04,VALID,998.687,VALID,0,VALID,57.123,VALID,0,VALID,27.3131,VALID,176,VALID,5.32422,
2011-08-25, 01:19:04,VALID,998.72,VALID,0,VALID,57.0848,VALID,0,VALID,27.3521,VALID,161,VALID,4.71484,
2011-08-25, 01:20:04,VALID,998.705,VALID,0,VALID,57.1077,VALID,0,VALID,27.3326,VALID,173,VALID,4.87617,
2011-08-25, 01:21:04,VALID,998.679,VALID,0,VALID,56.9627,VALID,0,VALID,27.2915,VALID,181,VALID,5.02539,
2011-08-25, 01:22:04,VALID,998.701,VALID,0,VALID,56.8712,VALID,0,VALID,27.3717,VALID,174,VALID,4.70391,
2011-08-25, 01:23:04,VALID,998.66,VALID,0,VALID,56.6042,VALID,0,VALID,27.3912,VALID,174,VALID,4.67656,
2011-08-25, 01:24:04,VALID,998.712,VALID,0,VALID,56.8636,VALID,0,VALID,27.3696,VALID,168,VALID,5.27148,
2011-08-25, 01:25:04,VALID,998.709,VALID,0,VALID,56.8407,VALID,0,VALID,27.35,VALID,189,VALID,3.72227,
2011-08-25, 01:26:04,VALID,998.747,VALID,0,VALID,56.7796,VALID,0,VALID,27.311,VALID,183,VALID,5.36758,
2011-08-25, 01:27:04,VALID,998.705,VALID,0,VALID,55.7496,VALID,0,VALID,27.3696,VALID,167,VALID,4.50977,
2011-08-25, 01:28:04,VALID,998.739,VALID,0,VALID,55.9709,VALID,0,VALID,27.35,VALID,190,VALID,4.33164,
2011-08-25, 01:29:04,VALID,998.736,VALID,0,VALID,55.6733,VALID,0,VALID,27.3696,VALID,176,VALID,4.80742,
2011-08-25, 01:30:04,VALID,998.746,VALID,0,VALID,55.1622,VALID,0,VALID,27.4282,VALID,173,VALID,6.14102,
2011-08-25, 01:31:04,VALID,998.772,VALID,0,VALID,55.6047,VALID,0,VALID,27.4086,VALID,168,VALID,4.63398,
2011-08-25, 01:32:04,VALID,998.76,VALID,0,VALID,55.681,VALID,0,VALID,27.3326,VALID,169,VALID,5.06914,
2011-08-25, 01:33:04,VALID,998.685,VALID,0,VALID,55.4597,VALID,0,VALID,27.35,VALID,165,VALID,5.33672,
2011-08-25, 01:34:04,VALID,998.767,VALID,0,VALID,55.4826,VALID,0,VALID,27.35,VALID,181,VALID,5.71172,
2011-08-25, 01:35:04,VALID,998.728,VALID,0,VALID,55.1011,VALID,0,VALID,27.35,VALID,178,VALID,6.40938,
2011-08-25, 01:36:04,VALID,998.751,VALID,0,VALID,55.8183,VALID,0,VALID,27.35,VALID,174,VALID,5.79297,
2011-08-25, 01:37:04,VALID,998.791,VALID,0,VALID,56.5965,VALID,0,VALID,27.2719,VALID,156,VALID,4.17148,
2011-08-25, 01:38:04,VALID,998.794,VALID,0,VALID,57.1764,VALID,0,VALID,27.1547,VALID,158,VALID,3.94336,
2011-08-25, 01:39:04,VALID,998.797,VALID,0,VALID,57.9317,VALID,0,VALID,27.0201,VALID,161,VALID,2.75352,
2011-08-25, 01:40:04,VALID,998.779,VALID,0,VALID,58.3132,VALID,0,VALID,26.8422,VALID,141,VALID,3.17734,
2011-08-25, 01:41:04,VALID,998.836,VALID,0,VALID,59.0304,VALID,0,VALID,26.7446,VALID,159,VALID,3.7043,
2011-08-25, 01:42:04,VALID,998.848,VALID,0,VALID,59.4271,VALID,0,VALID,26.688,VALID,143,VALID,3.31758,
2011-08-25, 01:43:04,VALID,998.841,VALID,0,VALID,58.1606,VALID,0,VALID,26.7251,VALID,159,VALID,3.58945,
2011-08-25, 01:44:04,VALID,998.87,VALID,0,VALID,58.5726,VALID,0,VALID,26.7661,VALID,156,VALID,2.80977,
2011-08-25, 01:45:04,VALID,998.87,VALID,0,VALID,58.9693,VALID,0,VALID,26.7076,VALID,156,VALID,1.94141,
2011-08-25, 01:46:04,VALID,998.859,VALID,0,VALID,58.9693,VALID,0,VALID,26.6274,VALID,157,VALID,2.66875,
2011-08-25, 01:47:04,VALID,998.844,VALID,0,VALID,57.5426,VALID,0,VALID,26.6274,VALID,153,VALID,4.07969,
2011-08-25, 01:48:04,VALID,998.834,VALID,0,VALID,57.2374,VALID,0,VALID,26.7661,VALID,175,VALID,2.87305,
2011-08-25, 01:49:04,VALID,998.868,VALID,0,VALID,56.9627,VALID,0,VALID,26.8833,VALID,164,VALID,3.49102,
2011-08-25, 01:50:04,VALID,998.851,VALID,0,VALID,56.3447,VALID,0,VALID,26.8813,VALID,168,VALID,4.95937,
2011-08-25, 01:51:04,VALID,998.842,VALID,0,VALID,56.1616,VALID,0,VALID,27.0005,VALID,176,VALID,4.43477,
2011-08-25, 01:52:04,VALID,998.817,VALID,0,VALID,55.7649,VALID,0,VALID,27.0787,VALID,166,VALID,5.56055,
2011-08-25, 01:53:04,VALID,998.823,VALID,0,VALID,55.4445,VALID,0,VALID,27.2154,VALID,162,VALID,4.95586,
2011-08-25, 01:54:04,VALID,998.818,VALID,0,VALID,55.3376,VALID,0,VALID,27.2154,VALID,179,VALID,4.96719,
2011-08-25, 01:55:04,VALID,998.747,VALID,0,VALID,54.9104,VALID,0,VALID,27.274,VALID,172,VALID,6.80859,
2011-08-25, 01:56:04,VALID,998.799,VALID,0,VALID,55.0706,VALID,0,VALID,27.2935,VALID,171,VALID,5.33867,
2011-08-25, 01:57:04,VALID,998.764,VALID,0,VALID,55.391,VALID,0,VALID,27.2133,VALID,177,VALID,4.97852,
2011-08-25, 01:58:04,VALID,998.764,VALID,0,VALID,55.3682,VALID,0,VALID,27.2329,VALID,166,VALID,4.76289,
2011-08-25, 01:59:04,VALID,998.717,VALID,0,VALID,55.1545,VALID,0,VALID,27.274,VALID,181,VALID,6.52344,
2011-08-25, 02:00:04,VALID,998.704,VALID,0,VALID,55.3453,VALID,0,VALID,27.2935,VALID,176,VALID,7.66133,
2011-08-25, 02:01:04,VALID,998.643,VALID,0,VALID,55.4597,VALID,0,VALID,27.2935,VALID,173,VALID,7.51563,
2011-08-25, 02:02:04,VALID,998.761,VALID,0,VALID,55.7878,VALID,0,VALID,27.2329,VALID,181,VALID,5.51094,
2011-08-25, 02:03:04,VALID,998.629,VALID,0,VALID,55.9709,VALID,0,VALID,27.2133,VALID,188,VALID,8.58555,
2011-08-25, 02:04:04,VALID,998.69,VALID,0,VALID,56.1769,VALID,0,VALID,27.2349,VALID,183,VALID,6.70469,
2011-08-25, 02:05:04,VALID,998.747,VALID,0,VALID,56.4134,VALID,0,VALID,27.1743,VALID,173,VALID,5.29141,
2011-08-25, 02:06:04,VALID,998.694,VALID,0,VALID,56.7339,VALID,0,VALID,27.0982,VALID,179,VALID,5.58203,
2011-08-25, 02:07:04,VALID,998.711,VALID,0,VALID,57.0314,VALID,0,VALID,27.0375,VALID,191,VALID,4.85625,
2011-08-25, 02:08:04,VALID,998.709,VALID,0,VALID,57.2069,VALID,0,VALID,27.018,VALID,178,VALID,5.53203,
2011-08-25, 02:09:04,VALID,998.666,VALID,0,VALID,57.535,VALID,0,VALID,26.9985,VALID,186,VALID,5.50859,
2011-08-25, 02:10:04,VALID,998.663,VALID,0,VALID,57.5502,VALID,0,VALID,26.9985,VALID,181,VALID,5.88438,
2011-08-25, 02:11:04,VALID,998.674,VALID,0,VALID,57.5884,VALID,0,VALID,26.9789,VALID,190,VALID,4.56172,
2011-08-25, 02:12:04,VALID,998.633,VALID,0,VALID,57.741,VALID,0,VALID,26.9615,VALID,216,VALID,3.09609,
2011-08-25, 02:13:04,VALID,998.694,VALID,0,VALID,57.9393,VALID,0,VALID,26.9594,VALID,203,VALID,4.1332,
2011-08-25, 02:14:04,VALID,998.713,VALID,0,VALID,58.1377,VALID,0,VALID,26.9204,VALID,194,VALID,3.3457,
2011-08-25, 02:15:04,VALID,998.694,VALID,0,VALID,58.359,VALID,0,VALID,26.8813,VALID,202,VALID,3.0875,
2011-08-25, 02:16:04,VALID,998.675,VALID,0,VALID,58.3666,VALID,0,VALID,26.9029,VALID,176,VALID,4.94219,
2011-08-25, 02:17:04,VALID,998.633,VALID,0,VALID,58.3513,VALID,0,VALID,26.9029,VALID,180,VALID,3.54297,
2011-08-25, 02:18:04,VALID,998.63,VALID,0,VALID,58.4658,VALID,0,VALID,26.8813,VALID,218,VALID,3.04844,
2011-08-25, 02:19:04,VALID,998.631,VALID,0,VALID,58.6947,VALID,0,VALID,26.8813,VALID,186,VALID,3.72148,
2011-08-25, 02:20:04,VALID,998.523,VALID,0,VALID,58.6947,VALID,0,VALID,26.8618,VALID,207,VALID,4.19102,
2011-08-25, 02:21:04,VALID,998.559,VALID,0,VALID,58.7862,VALID,0,VALID,26.8813,VALID,192,VALID,4.22773,
2011-08-25, 02:22:04,VALID,998.498,VALID,0,VALID,58.771,VALID,0,VALID,26.9008,VALID,194,VALID,3.50391,
2011-08-25, 02:23:04,VALID,998.464,VALID,0,VALID,58.8854,VALID,0,VALID,26.9204,VALID,201,VALID,5.33281,
2011-08-25, 02:24:04,VALID,998.47,VALID,0,VALID,58.9007,VALID,0,VALID,26.9594,VALID,177,VALID,5.38164,
2011-08-25, 02:25:04,VALID,998.445,VALID,0,VALID,58.8396,VALID,0,VALID,26.9985,VALID,176,VALID,6.24102,
2011-08-25, 02:26:04,VALID,998.406,VALID,0,VALID,59.0151,VALID,0,VALID,26.9789,VALID,180,VALID,6.25781,
2011-08-25, 02:27:04,VALID,998.417,VALID,0,VALID,59.0533,VALID,0,VALID,26.9789,VALID,184,VALID,4.36758,
2011-08-25, 02:28:04,VALID,998.503,VALID,0,VALID,59.2135,VALID,0,VALID,26.9594,VALID,175,VALID,5.16484,
2011-08-25, 02:29:04,VALID,998.399,VALID,0,VALID,59.5034,VALID,0,VALID,26.9399,VALID,182,VALID,3.75273,
2011-08-25, 02:30:04,VALID,998.36,VALID,0,VALID,59.7018,VALID,0,VALID,26.9399,VALID,173,VALID,6.15039,
2011-08-25, 02:31:04,VALID,998.343,VALID,0,VALID,59.656,VALID,0,VALID,26.9789,VALID,173,VALID,6.08906,
2011-08-25, 02:32:04,VALID,998.356,VALID,0,VALID,59.9001,VALID,0,VALID,26.9789,VALID,173,VALID,5.03281,
2011-08-25, 02:33:04,VALID,998.364,VALID,0,VALID,60.1824,VALID,0,VALID,26.981,VALID,172,VALID,4.59883,
2011-08-25, 02:34:04,VALID,998.371,VALID,0,VALID,60.3198,VALID,0,VALID,26.9594,VALID,173,VALID,5.25586,
2011-08-25, 02:35:04,VALID,998.373,VALID,0,VALID,60.6479,VALID,0,VALID,26.981,VALID,178,VALID,5.13359,
2011-08-25, 02:36:04,VALID,998.389,VALID,0,VALID,60.7547,VALID,0,VALID,26.9594,VALID,159,VALID,4.50273,
2011-08-25, 02:37:04,VALID,998.426,VALID,0,VALID,60.9759,VALID,0,VALID,26.9204,VALID,172,VALID,4.20313,
2011-08-25, 02:38:04,VALID,998.419,VALID,0,VALID,61.1209,VALID,0,VALID,26.9008,VALID,169,VALID,5.14883,
2011-08-25, 02:39:04,VALID,998.428,VALID,0,VALID,61.2811,VALID,0,VALID,26.9204,VALID,177,VALID,4.80977,
2011-08-25, 02:40:04,VALID,998.394,VALID,0,VALID,61.4642,VALID,0,VALID,26.9008,VALID,172,VALID,4.06328,
2011-08-25, 02:41:04,VALID,998.433,VALID,0,VALID,61.6092,VALID,0,VALID,26.9008,VALID,165,VALID,4.50781,
2011-08-25, 02:42:04,VALID,998.464,VALID,0,VALID,61.8304,VALID,0,VALID,26.8813,VALID,169,VALID,4.71992,
2011-08-25, 02:43:04,VALID,998.49,VALID,0,VALID,62.0746,VALID,0,VALID,26.8618,VALID,166,VALID,4.29531,
2011-08-25, 02:44:04,VALID,998.464,VALID,0,VALID,62.1585,VALID,0,VALID,26.8422,VALID,173,VALID,3.42617,
2011-08-25, 02:45:04,VALID,998.51,VALID,0,VALID,62.3187,VALID,0,VALID,26.8422,VALID,184,VALID,4.84883,
2011-08-25, 02:46:04,VALID,998.485,VALID,0,VALID,62.0364,VALID,0,VALID,26.9419,VALID,175,VALID,4.3918,
2011-08-25, 02:47:04,VALID,998.461,VALID,0,VALID,62.1661,VALID,0,VALID,26.9419,VALID,182,VALID,6.31211,
2011-08-25, 02:48:04,VALID,998.488,VALID,0,VALID,62.273,VALID,0,VALID,26.9399,VALID,173,VALID,5.16172,
2011-08-25, 02:49:04,VALID,998.472,VALID,0,VALID,62.2348,VALID,0,VALID,26.9399,VALID,175,VALID,5.09023,
2011-08-25, 02:50:04,VALID,998.47,VALID,0,VALID,62.5629,VALID,0,VALID,26.9204,VALID,156,VALID,5.21172,
2011-08-25, 02:51:04,VALID,998.399,VALID,0,VALID,62.4332,VALID,0,VALID,26.8618,VALID,173,VALID,5.69219,
2011-08-25, 02:52:04,VALID,998.438,VALID,0,VALID,62.5781,VALID,0,VALID,26.8618,VALID,175,VALID,4.9375,
2011-08-25, 02:53:04,VALID,998.43,VALID,0,VALID,62.5781,VALID,0,VALID,26.8618,VALID,174,VALID,5.70703,
2011-08-25, 02:54:04,VALID,998.464,VALID,0,VALID,62.6392,VALID,0,VALID,26.8227,VALID,172,VALID,5.35117,
2011-08-25, 02:55:04,VALID,998.465,VALID,0,VALID,62.6773,VALID,0,VALID,26.8227,VALID,179,VALID,5.75039,
2011-08-25, 02:56:04,VALID,998.442,VALID,0,VALID,62.5705,VALID,0,VALID,26.8032,VALID,163,VALID,5.4875,
2011-08-25, 02:57:04,VALID,998.426,VALID,0,VALID,62.7994,VALID,0,VALID,26.7641,VALID,185,VALID,4.4957,
2011-08-25, 02:58:04,VALID,998.45,VALID,0,VALID,62.4866,VALID,0,VALID,26.8032,VALID,178,VALID,6.59375,
2011-08-25, 02:59:04,VALID,998.461,VALID,0,VALID,62.5324,VALID,0,VALID,26.8032,VALID,190,VALID,5.01953,
2011-08-25, 03:00:04,VALID,998.424,VALID,0,VALID,62.4713,VALID,0,VALID,26.8032,VALID,167,VALID,6.28594,
2011-08-25, 03:01:04,VALID,998.358,VALID,0,VALID,62.3264,VALID,0,VALID,26.7836,VALID,167,VALID,6.13281,
2011-08-25, 03:02:04,VALID,998.371,VALID,0,VALID,62.2501,VALID,0,VALID,26.8032,VALID,194,VALID,5.25938,
2011-08-25, 03:03:04,VALID,998.375,VALID,0,VALID,62.2882,VALID,0,VALID,26.8032,VALID,183,VALID,6.44531,
2011-08-25, 03:04:04,VALID,998.374,VALID,0,VALID,62.2043,VALID,0,VALID,26.8032,VALID,172,VALID,6.56289,
2011-08-25, 03:05:04,VALID,998.37,VALID,0,VALID,62.2424,VALID,0,VALID,26.8052,VALID,172,VALID,6.8625,
2011-08-25, 03:06:04,VALID,998.433,VALID,0,VALID,62.5553,VALID,0,VALID,26.7641,VALID,188,VALID,4.71523,
2011-08-25, 03:07:04,VALID,998.421,VALID,0,VALID,62.7231,VALID,0,VALID,26.7466,VALID,184,VALID,4.28906,
2011-08-25, 03:08:04,VALID,998.413,VALID,0,VALID,62.7994,VALID,0,VALID,26.686,VALID,183,VALID,4.73555,
2011-08-25, 03:09:04,VALID,998.461,VALID,0,VALID,62.8452,VALID,0,VALID,26.6665,VALID,182,VALID,4.3832,
2011-08-25, 03:10:04,VALID,998.454,VALID,0,VALID,62.8223,VALID,0,VALID,26.6274,VALID,192,VALID,3.56914,
2011-08-25, 03:11:04,VALID,998.446,VALID,0,VALID,62.685,VALID,0,VALID,26.6469,VALID,189,VALID,4.03047,
2011-08-25, 03:12:04,VALID,998.45,VALID,0,VALID,62.7918,VALID,0,VALID,26.6469,VALID,196,VALID,2.92773,
2011-08-25, 03:13:04,VALID,998.47,VALID,0,VALID,62.6392,VALID,0,VALID,26.6469,VALID,198,VALID,3.47344,
2011-08-25, 03:14:04,VALID,998.48,VALID,0,VALID,62.6697,VALID,0,VALID,26.649,VALID,209,VALID,3.87695,
2011-08-25, 03:15:04,VALID,998.442,VALID,0,VALID,62.2577,VALID,0,VALID,26.6665,VALID,195,VALID,5.2168,
2011-08-25, 03:16:04,VALID,998.464,VALID,0,VALID,61.8686,VALID,0,VALID,26.7446,VALID,206,VALID,6.04063,
2011-08-25, 03:17:04,VALID,998.485,VALID,0,VALID,61.8076,VALID,0,VALID,26.8052,VALID,190,VALID,3.65742,
2011-08-25, 03:18:04,VALID,998.469,VALID,0,VALID,61.8228,VALID,0,VALID,26.7641,VALID,228,VALID,3.50977,
2011-08-25, 03:19:04,VALID,998.552,VALID,0,VALID,61.8762,VALID,0,VALID,26.7446,VALID,198,VALID,3.64063,
2011-08-25, 03:20:04,VALID,998.525,VALID,0,VALID,61.716,VALID,0,VALID,26.7836,VALID,188,VALID,5.7043,
2011-08-25, 03:21:04,VALID,998.583,VALID,0,VALID,61.7618,VALID,0,VALID,26.7836,VALID,189,VALID,4.19453,
2011-08-25, 03:22:04,VALID,998.582,VALID,0,VALID,61.9296,VALID,0,VALID,26.7446,VALID,203,VALID,3.10195,
2011-08-25, 03:23:04,VALID,998.602,VALID,0,VALID,61.6855,VALID,0,VALID,26.7251,VALID,198,VALID,4.03828,
2011-08-25, 03:24:04,VALID,998.595,VALID,0,VALID,61.571,VALID,0,VALID,26.8227,VALID,188,VALID,5.19648,
2011-08-25, 03:25:04,VALID,998.622,VALID,0,VALID,61.4261,VALID,0,VALID,26.8443,VALID,198,VALID,4.29063,
2011-08-25, 03:26:04,VALID,998.601,VALID,0,VALID,61.5634,VALID,0,VALID,26.8227,VALID,208,VALID,3.70273,
2011-08-25, 03:27:04,VALID,998.578,VALID,0,VALID,61.5329,VALID,0,VALID,26.8032,VALID,196,VALID,4.11367,
2011-08-25, 03:28:04,VALID,998.594,VALID,0,VALID,61.6168,VALID,0,VALID,26.8032,VALID,197,VALID,4.56289,
2011-08-25, 03:29:04,VALID,998.599,VALID,0,VALID,61.6473,VALID,0,VALID,26.8227,VALID,194,VALID,3.38594,
2011-08-25, 03:30:04,VALID,998.575,VALID,0,VALID,61.7389,VALID,0,VALID,26.8032,VALID,179,VALID,5.36328,
2011-08-25, 03:31:04,VALID,998.549,VALID,0,VALID,61.8381,VALID,0,VALID,26.8443,VALID,182,VALID,5.06641,
2011-08-25, 03:32:04,VALID,998.608,VALID,0,VALID,61.922,VALID,0,VALID,26.8032,VALID,174,VALID,4.3957,
2011-08-25, 03:33:04,VALID,998.615,VALID,0,VALID,62.0136,VALID,0,VALID,26.7857,VALID,176,VALID,4.96797,
2011-08-25, 03:34:04,VALID,998.594,VALID,0,VALID,62.0288,VALID,0,VALID,26.7836,VALID,170,VALID,4.10977,
2011-08-25, 03:35:04,VALID,998.626,VALID,0,VALID,62.2348,VALID,0,VALID,26.7836,VALID,170,VALID,4.71641,
2011-08-25, 03:36:04,VALID,998.635,VALID,0,VALID,62.1967,VALID,0,VALID,26.7641,VALID,172,VALID,5.3168,
2011-08-25, 03:37:04,VALID,998.597,VALID,0,VALID,61.9373,VALID,0,VALID,26.8247,VALID,177,VALID,5.87734,
2011-08-25, 03:38:04,VALID,998.644,VALID,0,VALID,61.8839,VALID,0,VALID,26.8227,VALID,193,VALID,3.90625,
2011-08-25, 03:39:04,VALID,998.69,VALID,0,VALID,62.1967,VALID,0,VALID,26.8032,VALID,176,VALID,3.17773,
2011-08-25, 03:40:04,VALID,998.712,VALID,0,VALID,62.3264,VALID,0,VALID,26.7446,VALID,180,VALID,3.64648,
2011-08-25, 03:41:04,VALID,998.717,VALID,0,VALID,62.5018,VALID,0,VALID,26.7251,VALID,187,VALID,3.8082,
2011-08-25, 03:42:04,VALID,998.732,VALID,0,VALID,62.4256,VALID,0,VALID,26.7446,VALID,178,VALID,4.39531,
2011-08-25, 03:43:04,VALID,998.724,VALID,0,VALID,62.6773,VALID,0,VALID,26.686,VALID,169,VALID,3.63906,
2011-08-25, 03:44:04,VALID,998.718,VALID,0,VALID,62.6087,VALID,0,VALID,26.6665,VALID,177,VALID,5.07891,
2011-08-25, 03:45:04,VALID,998.675,VALID,0,VALID,62.5858,VALID,0,VALID,26.7251,VALID,192,VALID,3.94531,
2011-08-25, 03:46:04,VALID,998.638,VALID,0,VALID,62.5018,VALID,0,VALID,26.7076,VALID,187,VALID,4.57734,